{"data":{"norad_id":53073,"intl_designator":"2022-077AG","name":"STARLINK-4346","alt_names":[],"object_type":"PAYLOAD","status":"ACTIVE","operator":null,"country":"US","launch_date":"2022-07-11","launch_site_code":"AFWTR","launch_vehicle":null,"mission":null,"orbit_class":"UNKNOWN","rcs_meters":null,"size_class":null,"mass_kg":null,"dimensions":null,"purposes":["comms"],"wikipedia_slug":null,"has_3d_model":false,"image_url":null,"decayed_at":null,"tle_current":{"epoch":"2026-09-19T18:36:02.893536Z","epoch_age_seconds":134953,"freshness":"FRESH","line1":"1 53073U 22077AG  26262.77503349  .00009281  00000+0  37585-3 0  9992","line2":"2 53073  97.6336  94.0014 0005161 267.6198  92.4448 15.24896510230832","mean_motion":15.2489651,"eccentricity":0.0005161,"inclination_deg":97.6336,"raan_deg":94.0014,"arg_perigee_deg":267.6198,"mean_anomaly_deg":92.4448,"bstar":0.00037585,"rev_number":23083,"period_min":94.432637923737,"perigee_km":487.55100063422,"apogee_km":494.64142315554,"semimajor_km":6869.2332118949,"source":"CELESTRAK","updated_at":"2026-09-20T09:00:40.156181Z"}}}